TimeCDT,TemperatureF,Dew PointF,Humidity,Sea Level PressureIn,VisibilityMPH,Wind Direction,Wind SpeedMPH,Gust SpeedMPH,PrecipitationIn,Events,Conditions,WindDirDegrees,DateUTC
12:15 AM,53.4,51.8,94,30.21,10.0,NW,4.6,-,N/A,,Clear,320,2013-09-16 05:15:00
12:35 AM,52.9,51.1,94,30.22,10.0,NNW,5.8,-,N/A,,Clear,330,2013-09-16 05:35:00
12:55 AM,52.7,51.1,94,30.22,10.0,NNW,5.8,-,N/A,,Clear,330,2013-09-16 05:55:00
1:15 AM,52.9,51.3,94,30.23,10.0,NW,4.6,-,N/A,,Clear,320,2013-09-16 06:15:00
1:35 AM,52.3,50.9,95,30.23,10.0,NNW,3.5,-,N/A,,Clear,330,2013-09-16 06:35:00
1:55 AM,53.4,51.6,94,30.24,10.0,North,4.6,-,N/A,,Clear,10,2013-09-16 06:55:00
2:15 AM,54.0,52.2,94,30.25,10.0,NNE,5.8,-,N/A,,Scattered Clouds,20,2013-09-16 07:15:00
2:35 AM,54.7,52.7,93,30.25,10.0,NNE,3.5,-,N/A,,Mostly Cloudy,20,2013-09-16 07:35:00
2:55 AM,53.8,51.8,93,30.26,10.0,North,4.6,-,N/A,,Scattered Clouds,10,2013-09-16 07:55:00
3:15 AM,53.1,51.3,94,30.26,10.0,North,6.9,-,N/A,,Scattered Clouds,360,2013-09-16 08:15:00
3:35 AM,54.7,52.9,94,30.26,10.0,North,8.1,-,N/A,,Clear,10,2013-09-16 08:35:00
3:55 AM,53.6,51.6,93,30.27,10.0,NNE,6.9,-,N/A,,Clear,20,2013-09-16 08:55:00
4:15 AM,55.6,53.4,92,30.28,10.0,NNE,10.4,16.1,N/A,,Mostly Cloudy,30,2013-09-16 09:15:00
4:35 AM,55.9,52.9,89,30.28,10.0,NNE,8.1,-,N/A,,Overcast,30,2013-09-16 09:35:00
4:55 AM,55.6,51.8,87,30.29,10.0,NE,15.0,-,N/A,,Overcast,40,2013-09-16 09:55:00
5:15 AM,55.4,51.8,88,30.30,10.0,NNE,10.4,16.1,N/A,,Overcast,30,2013-09-16 10:15:00
5:35 AM,54.9,50.9,86,30.30,10.0,NNE,10.4,-,N/A,,Overcast,30,2013-09-16 10:35:00
5:55 AM,54.3,49.8,85,30.30,10.0,NE,10.4,-,N/A,,Mostly Cloudy,40,2013-09-16 10:55:00
6:15 AM,53.4,48.9,85,30.32,10.0,NE,10.4,-,N/A,,Scattered Clouds,40,2013-09-16 11:15:00
6:35 AM,53.1,49.5,88,30.32,10.0,Calm,Calm,-,N/A,,Mostly Cloudy,0,2013-09-16 11:35:00
6:55 AM,52.7,48.0,84,30.33,10.0,NE,10.4,-,N/A,,Overcast,50,2013-09-16 11:55:00
7:15 AM,52.3,47.3,83,30.34,10.0,NE,9.2,-,N/A,,Overcast,50,2013-09-16 12:15:00
7:35 AM,52.0,46.4,81,30.35,10.0,NE,10.4,-,N/A,,Overcast,40,2013-09-16 12:35:00
7:55 AM,51.8,45.9,80,30.36,10.0,NNE,10.4,-,N/A,,Overcast,30,2013-09-16 12:55:00
8:15 AM,52.0,45.9,80,30.37,10.0,NNE,9.2,-,N/A,,Overcast,30,2013-09-16 13:15:00
8:35 AM,52.5,45.9,78,30.37,10.0,NNE,8.1,-,N/A,,Overcast,20,2013-09-16 13:35:00
8:55 AM,52.5,45.5,77,30.38,10.0,NNE,6.9,-,N/A,,Overcast,30,2013-09-16 13:55:00
9:15 AM,54.1,44.4,70,30.38,10.0,NNE,12.7,-,N/A,,Scattered Clouds,20,2013-09-16 14:15:00
9:35 AM,55.8,44.1,65,30.39,10.0,NNE,10.4,-,N/A,,Clear,20,2013-09-16 14:35:00
9:55 AM,56.5,44.6,64,30.39,10.0,North,9.2,-,N/A,,Clear,10,2013-09-16 14:55:00
10:15 AM,57.4,45.1,64,30.39,10.0,NE,6.9,-,N/A,,Clear,50,2013-09-16 15:15:00
10:35 AM,58.1,44.8,61,30.38,10.0,NNE,9.2,-,N/A,,Clear,20,2013-09-16 15:35:00
10:55 AM,59.9,45.3,59,30.39,10.0,NE,6.9,-,N/A,,Clear,50,2013-09-16 15:55:00
11:15 AM,60.8,45.5,57,30.39,10.0,ENE,6.9,-,N/A,,Clear,60,2013-09-16 16:15:00
11:35 AM,60.8,45.0,56,30.38,10.0,NE,3.5,-,N/A,,Clear,40,2013-09-16 16:35:00
11:55 AM,61.5,45.9,56,30.38,10.0,NNE,5.8,-,N/A,,Clear,30,2013-09-16 16:55:00
12:15 PM,63.5,45.1,51,30.38,10.0,ENE,4.6,-,N/A,,Clear,70,2013-09-16 17:15:00
12:35 PM,64.6,45.3,50,30.38,10.0,ENE,10.4,-,N/A,,Clear,60,2013-09-16 17:35:00
12:55 PM,65.7,45.5,48,30.37,10.0,NNE,5.8,-,N/A,,Clear,20,2013-09-16 17:55:00
1:15 PM,66.7,45.0,45,30.37,10.0,ENE,10.4,-,N/A,,Clear,60,2013-09-16 18:15:00
1:35 PM,67.3,43.2,42,30.36,10.0,NE,10.4,16.1,N/A,,Clear,50,2013-09-16 18:35:00
1:55 PM,68.2,42.8,40,30.35,10.0,ENE,8.1,-,N/A,,Clear,70,2013-09-16 18:55:00
2:15 PM,68.7,41.2,37,30.34,10.0,East,6.9,-,N/A,,Clear,90,2013-09-16 19:15:00
2:35 PM,68.9,41.2,36,30.34,10.0,East,8.1,-,N/A,,Clear,80,2013-09-16 19:35:00
2:55 PM,69.3,41.2,36,30.33,10.0,East,5.8,-,N/A,,Clear,80,2013-09-16 19:55:00
3:15 PM,69.8,40.6,35,30.32,10.0,ENE,9.2,-,N/A,,Clear,70,2013-09-16 20:15:00
3:35 PM,70.2,39.4,33,30.32,10.0,East,8.1,-,N/A,,Clear,80,2013-09-16 20:35:00
3:55 PM,70.0,40.6,34,30.31,10.0,East,8.1,-,N/A,,Clear,90,2013-09-16 20:55:00
4:15 PM,70.5,40.1,33,30.30,10.0,ENE,8.1,-,N/A,,Clear,70,2013-09-16 21:15:00
4:35 PM,70.2,40.3,34,30.30,10.0,ENE,6.9,-,N/A,,Clear,60,2013-09-16 21:35:00
4:55 PM,70.0,40.5,34,30.30,10.0,ENE,10.4,-,N/A,,Clear,70,2013-09-16 21:55:00
5:15 PM,70.0,42.4,37,30.29,10.0,ENE,6.9,-,N/A,,Clear,60,2013-09-16 22:15:00
5:35 PM,69.4,43.2,39,30.29,10.0,NE,6.9,-,N/A,,Clear,50,2013-09-16 22:35:00
5:55 PM,68.4,43.7,41,30.29,10.0,NE,6.9,-,N/A,,Clear,50,2013-09-16 22:55:00
6:15 PM,67.3,43.5,42,30.29,10.0,ENE,5.8,-,N/A,,Clear,60,2013-09-16 23:15:00
6:35 PM,65.1,44.8,48,30.29,10.0,ENE,5.8,-,N/A,,Clear,60,2013-09-16 23:35:00
6:55 PM,61.7,45.7,56,30.29,10.0,NE,5.8,-,N/A,,Clear,50,2013-09-16 23:55:00
7:15 PM,59.4,45.5,60,30.29,10.0,NE,5.8,-,N/A,,Clear,50,2013-09-17 00:15:00
7:35 PM,57.7,45.3,63,30.29,10.0,NE,5.8,-,N/A,,Clear,50,2013-09-17 00:35:00
7:55 PM,56.1,45.5,68,30.29,10.0,ENE,4.6,-,N/A,,Clear,60,2013-09-17 00:55:00
8:15 PM,54.7,46.0,73,30.29,10.0,East,4.6,-,N/A,,Clear,80,2013-09-17 01:15:00
8:35 PM,54.5,46.0,73,30.30,10.0,ENE,5.8,-,N/A,,Clear,70,2013-09-17 01:35:00
8:55 PM,52.7,46.4,79,30.30,10.0,East,8.1,-,N/A,,Clear,80,2013-09-17 01:55:00
9:15 PM,53.8,46.9,78,30.30,10.0,East,8.1,-,N/A,,Clear,80,2013-09-17 02:15:00
9:35 PM,53.4,46.9,79,30.30,10.0,East,8.1,-,N/A,,Clear,80,2013-09-17 02:35:00
9:55 PM,53.6,46.9,78,30.31,10.0,East,8.1,-,N/A,,Clear,90,2013-09-17 02:55:00
10:15 PM,53.8,46.6,77,30.31,10.0,East,8.1,-,N/A,,Clear,90,2013-09-17 03:15:00
10:35 PM,53.2,46.6,78,30.31,10.0,East,8.1,-,N/A,,Clear,90,2013-09-17 03:35:00
10:55 PM,52.2,46.6,81,30.32,10.0,East,6.9,-,N/A,,Clear,80,2013-09-17 03:55:00
11:15 PM,51.4,46.4,83,30.32,10.0,East,5.8,-,N/A,,Clear,90,2013-09-17 04:15:00
11:35 PM,50.9,46.4,85,30.32,10.0,East,6.9,-,N/A,,Clear,90,2013-09-17 04:35:00
11:55 PM,50.2,46.0,86,30.33,10.0,East,5.8,-,N/A,,Clear,90,2013-09-17 04:55:00